GFSSW_500_spd_021.txt.gz
Wind_Speed
39 38 44 46 50 54 53 56 61 61 57 55 57 57 49 46 45 41 35 31 35 36 34 35 33 33 38 36 32 33 33 33 29 28 17 19 23 25 24 29 37 48 41 39 39
41 42 38 42 49 50 48 53 56 57 60 63 63 60 48 51 50 48 48 48 46 47 46 44 38 38 36 29 29 38 40 40 32 26 21 22 25 29 31 33 38 39 43 42 35
42 43 43 42 43 47 48 49 54 59 63 64 63 61 59 61 52 49 48 46 47 47 46 40 36 37 36 33 30 36 41 34 25 29 19 21 19 23 31 32 33 36 36 34 33
33 41 43 44 43 45 48 48 49 56 63 66 63 62 63 60 61 57 52 49 46 44 42 39 40 43 45 45 41 45 43 35 35 39 26 21 20 23 28 27 30 35 29 30 23
32 25 40 41 39 39 39 42 45 50 56 59 59 60 66 66 60 58 54 52 51 47 47 47 49 48 52 51 50 53 54 49 46 33 33 27 22 26 22 26 31 31 28 26 19
34 35 32 41 42 39 36 34 36 40 49 55 61 63 64 59 51 55 59 60 56 63 65 65 62 56 62 61 60 57 58 55 41 35 30 27 25 24 21 19 28 26 22 20 22
41 38 37 41 43 37 35 40 37 37 39 47 55 59 56 47 51 54 60 63 66 66 65 60 58 62 64 62 62 62 55 49 36 34 23 25 27 20 21 20 25 30 25 21 24
44 45 44 43 43 43 46 42 42 43 41 36 37 40 38 35 49 47 42 27 28 28 32 31 34 48 49 51 47 38 36 33 29 21 17 19 23 17 19 23 29 28 22 28 32
48 48 48 49 49 50 49 48 48 48 46 47 42 43 27 28 27 34 42 28 28 24 27 30 33 24 28 23 23 28 26 23 13 12 12 12 21 23 26 20 24 27 30 32 36
54 54 55 54 52 54 55 54 53 49 51 50 49 43 35 32 36 41 43 38 36 34 34 31 29 33 26 28 17 17 20 17 9 5 8 12 27 26 26 22 27 32 33 34 36
63 61 60 60 60 58 56 58 58 58 55 49 49 46 44 43 39 38 42 42 40 39 35 35 39 30 21 21 21 23 21 16 16 4 18 25 23 19 25 25 26 26 21 22 31
71 70 69 67 66 64 62 60 63 64 59 54 50 44 45 48 44 42 43 46 46 40 38 37 34 23 20 25 22 23 23 19 14 12 26 16 20 20 32 26 24 24 24 27 26
78 77 77 75 72 71 69 67 66 67 65 59 55 50 41 47 46 45 45 46 48 47 44 40 30 24 28 28 28 25 24 15 20 20 24 20 25 28 32 25 22 21 24 30 31
79 78 77 77 79 76 74 73 71 70 68 60 58 54 48 45 42 39 40 44 50 50 44 43 38 34 35 33 29 29 20 20 23 23 31 29 35 32 24 18 17 20 24 32 37
65 63 65 66 71 75 78 75 74 71 71 64 59 56 53 53 42 37 33 37 41 35 36 32 31 38 36 29 27 21 23 22 18 15 18 25 29 16 21 21 18 29 22 32 38
40 40 41 42 45 56 65 71 70 69 71 67 64 59 56 53 51 45 36 38 35 35 35 30 27 37 35 30 28 22 24 21 15 19 28 23 22 3 8 14 19 25 30 34 39
39 40 42 41 41 44 48 53 59 74 66 65 61 54 60 52 46 49 51 45 42 38 34 30 29 32 30 34 32 31 24 26 26 31 34 23 23 3 8 12 18 24 27 29 25
39 40 39 37 34 38 40 45 61 67 66 63 49 39 39 32 52 45 43 50 47 38 34 34 34 32 32 34 33 32 26 33 31 32 25 12 22 9 17 15 16 24 24 25 25
27 24 26 29 33 36 36 41 48 49 58 60 48 51 42 33 31 23 47 47 47 44 39 36 32 27 30 29 29 30 33 24 29 27 21 11 15 4 15 14 20 25 25 26 20
25 24 28 28 27 31 33 29 29 42 42 43 62 63 54 51 44 41 29 54 48 44 44 40 36 27 28 27 29 34 27 29 34 33 32 24 22 13 19 24 25 29 27 28 21
27 25 24 19 18 20 22 19 22 33 38 48 63 67 60 57 52 47 53 51 49 48 45 43 41 32 29 36 35 35 37 38 33 31 27 22 23 17 21 22 25 23 28 28 16
24 19 12 11 10 8 10 17 21 23 32 44 59 76 69 61 62 49 50 46 34 42 50 47 46 43 38 29 28 34 37 39 41 36 25 21 15 17 20 23 26 22 26 27 12
19 6 6 7 6 14 14 16 20 23 34 41 55 77 67 65 62 57 54 54 48 43 47 47 50 47 39 38 37 32 33 38 43 34 27 22 17 26 23 26 25 21 21 17 10
13 4 5 7 8 21 23 22 21 21 28 37 49 61 68 69 67 65 59 58 53 52 53 40 46 54 50 45 40 37 38 39 43 41 30 25 17 23 27 28 23 24 22 9 7
11 3 7 11 14 18 24 27 29 28 27 24 43 57 62 70 66 69 67 62 57 58 48 45 48 52 51 44 41 39 38 36 33 32 34 23 24 29 25 23 20 27 17 5 7
15 7 10 8 10 5 8 13 9 14 24 21 36 51 55 70 65 68 70 68 60 60 53 49 52 49 53 51 48 45 41 39 31 31 38 29 25 28 24 23 23 28 17 6 6
19 14 10 8 8 7 6 10 16 10 20 19 20 37 55 58 58 71 71 73 64 63 57 56 58 41 55 55 50 49 48 43 32 32 31 33 26 32 33 32 29 30 19 11 6

GFSSW_500_spd_024.txt.gz
Wind_Speed
34 39 43 43 43 43 47 49 52 53 55 53 51 49 51 49 49 43 44 41 45 39 39 34 30 33 36 34 35 40 43 35 26 29 34 30 35 33 25 27 33 37 40 39 32
33 36 41 46 46 46 46 49 54 56 55 55 56 54 56 55 57 56 45 48 43 45 40 41 41 42 41 38 41 46 44 33 28 35 33 22 26 23 27 30 34 39 41 36 25
29 33 34 39 47 49 47 48 51 54 54 54 58 59 61 62 63 56 56 48 48 47 49 51 51 47 47 45 43 43 45 35 36 39 31 33 29 21 24 26 31 34 31 32 26
36 38 37 30 35 44 50 48 49 50 53 54 57 58 62 64 63 59 57 51 51 49 51 48 47 49 48 47 37 47 46 42 42 44 41 42 41 25 21 27 28 28 26 25 21
35 36 37 40 35 30 44 50 51 52 55 57 58 60 63 60 55 57 54 54 53 53 53 48 51 47 50 43 44 52 49 49 48 48 49 45 42 23 23 23 28 22 22 24 19
39 40 40 40 40 43 39 48 49 51 54 55 57 60 60 58 52 57 56 59 57 54 54 54 50 50 59 54 56 54 56 60 55 55 52 50 34 27 20 20 21 21 24 20 16
40 41 42 42 43 42 46 44 48 51 51 51 51 53 55 51 50 57 59 59 61 62 60 55 58 60 62 65 65 63 61 56 52 49 42 32 27 21 15 18 15 22 27 20 21
48 48 47 47 46 45 46 49 50 54 55 47 42 42 44 44 51 56 55 57 59 57 58 57 62 65 69 68 64 59 56 51 40 30 11 27 23 12 14 15 16 21 24 27 27
55 56 55 54 53 51 49 50 52 55 55 44 45 44 36 30 35 47 55 59 56 59 57 59 52 48 44 45 39 35 32 25 8 12 12 25 19 13 12 11 17 17 25 34 29
64 64 63 62 61 58 56 55 53 56 56 51 53 47 38 35 31 38 56 62 60 56 46 38 39 34 27 23 10 17 18 13 10 9 18 20 17 15 12 17 11 14 27 28 22
73 73 73 71 70 67 64 62 59 59 57 56 53 48 49 46 39 37 37 41 43 47 41 40 48 26 15 21 26 20 22 21 16 22 24 20 14 18 16 12 15 22 23 21 20
79 80 79 77 76 75 71 70 67 64 60 56 56 51 48 49 47 44 44 45 46 42 42 44 33 28 25 31 28 25 26 19 25 26 24 20 14 12 12 21 18 26 21 21 30
77 76 80 79 77 78 77 75 73 69 67 60 57 56 51 51 50 47 48 48 47 47 47 43 35 31 33 33 34 29 28 17 21 25 27 22 20 18 14 18 20 25 24 22 27
55 56 59 65 73 73 76 75 75 73 72 65 61 59 55 53 54 45 48 51 52 51 48 48 45 40 38 38 34 36 19 20 21 26 23 24 25 20 20 22 27 29 28 24 23
38 38 39 39 43 49 62 64 72 73 71 64 67 67 63 57 53 49 45 45 47 51 52 49 44 42 38 36 32 25 26 24 22 23 26 30 31 22 23 20 25 25 14 14 21
33 32 31 30 29 32 36 44 53 63 69 55 65 65 68 61 54 55 50 49 42 41 46 51 48 43 40 40 38 24 32 28 27 29 37 25 34 10 16 19 15 6 9 12 19
32 33 34 34 35 33 33 34 40 60 59 38 57 63 64 65 53 50 54 52 46 44 45 46 44 42 41 42 44 38 36 36 36 40 32 23 22 8 9 13 12 12 13 14 18
29 28 28 25 27 29 31 34 39 42 42 32 58 46 54 54 52 43 45 53 49 40 38 34 36 35 32 38 43 43 41 40 39 34 26 23 20 9 7 14 17 15 16 18 22
26 25 23 22 23 23 24 29 30 32 41 52 56 37 46 57 57 48 45 51 48 43 38 36 37 30 29 30 38 41 39 33 33 26 29 18 18 18 11 11 9 13 15 17 20
27 27 24 21 22 23 25 29 31 33 32 42 54 48 45 54 55 57 60 46 50 51 47 39 36 29 24 30 34 33 33 35 38 34 29 24 22 19 14 14 11 10 15 16 21
23 20 18 18 15 13 13 16 22 28 24 30 53 58 48 60 61 57 66 62 54 45 45 46 44 35 34 32 32 36 38 41 31 26 27 21 20 12 16 16 14 12 16 20 22
24 18 2 5 7 7 7 6 16 17 24 24 40 61 56 61 62 63 64 69 66 59 53 46 48 40 31 32 27 29 31 33 33 31 29 23 17 15 23 19 15 13 14 16 22
22 12 3 3 3 9 8 6 7 12 15 18 32 52 59 58 61 65 69 67 67 67 62 49 50 47 41 41 38 38 36 34 33 33 30 24 15 19 18 19 15 15 10 15 22
20 8 7 3 9 16 13 14 16 18 14 19 27 47 52 63 63 72 67 67 64 65 69 62 58 55 50 43 39 40 39 37 38 38 30 22 20 22 19 19 19 12 11 13 19
19 10 10 10 10 14 14 13 16 22 27 25 21 38 54 63 62 75 67 66 64 63 67 67 62 57 50 45 42 38 36 38 39 34 32 22 21 22 20 17 13 13 12 10 14
23 17 12 14 7 6 5 6 18 17 12 19 21 27 48 66 63 70 71 62 64 61 63 67 64 58 54 49 45 44 42 38 35 34 29 25 25 20 23 20 20 17 14 4 9
28 25 6 7 6 6 7 8 9 8 8 9 15 11 32 61 71 62 69 69 69 63 63 67 67 62 58 55 49 55 49 44 36 32 29 29 23 25 27 22 20 20 8 1 4

GFSSW_500_spd_030.txt.gz
Wind_Speed
27 28 28 29 30 33 36 37 39 43 44 46 51 57 57 59 59 56 54 51 58 56 52 45 38 39 39 41 39 39 45 39 34 32 36 43 38 39 43 38 34 34 39 41 36
30 32 35 35 35 35 35 37 40 42 42 42 44 46 51 54 54 59 52 57 56 57 47 49 42 45 49 44 48 45 45 41 39 41 41 43 42 38 43 41 33 38 40 43 36
30 31 34 38 41 41 42 43 44 46 47 49 51 52 53 56 57 53 54 52 53 55 54 45 56 51 52 49 43 46 49 39 45 44 46 47 46 47 46 41 34 39 44 43 36
36 39 39 39 41 45 47 46 47 46 47 48 52 57 57 57 57 57 56 54 54 55 51 46 51 55 53 49 44 50 51 45 47 46 51 49 49 47 49 42 40 44 49 46 31
34 36 39 41 43 45 48 49 49 51 51 51 50 47 57 59 53 55 56 57 57 54 57 53 55 57 53 50 52 54 48 50 53 55 53 51 49 51 49 41 47 48 53 43 30
38 39 40 41 42 45 49 51 53 54 54 54 54 53 50 54 51 52 54 58 59 56 58 59 58 59 57 54 57 56 53 55 57 55 50 49 51 59 51 45 50 52 57 34 29
44 46 48 50 51 52 52 53 54 57 58 57 56 55 51 38 50 47 54 55 58 62 62 61 64 65 63 60 59 62 61 59 59 54 52 53 56 60 53 57 60 56 43 26 31
52 54 57 59 59 60 61 62 62 60 59 59 59 59 51 46 43 51 49 50 52 55 59 66 65 65 69 67 64 65 64 60 54 50 49 53 56 60 54 54 49 40 35 26 27
60 63 65 68 69 70 71 72 70 69 67 66 63 61 53 54 49 45 52 53 53 57 58 64 70 69 71 71 69 69 60 54 47 38 44 47 52 46 40 38 36 34 26 24 20
67 71 74 76 79 80 83 84 81 79 76 73 70 66 62 58 55 54 54 55 52 54 59 63 69 72 72 75 68 61 54 52 48 27 32 34 43 39 27 37 33 24 21 20 20
75 78 81 85 87 90 91 91 91 90 85 82 76 72 68 66 61 58 55 55 54 54 56 58 65 63 59 63 67 63 56 50 36 30 31 29 34 22 29 33 21 22 22 20 20
78 83 87 90 91 86 87 89 92 89 93 89 85 80 74 73 68 66 58 57 55 51 48 51 54 51 65 67 64 60 57 45 22 21 30 29 35 21 26 23 25 24 22 17 11
83 81 72 62 59 57 59 62 67 69 79 82 88 86 81 79 74 69 63 59 57 52 47 49 41 42 54 62 62 50 43 29 21 31 31 35 32 21 25 27 22 19 20 12 12
62 55 51 48 48 46 45 42 47 53 62 67 70 79 86 84 79 71 67 63 60 55 47 47 44 38 40 50 54 48 32 33 30 34 30 34 31 23 26 28 23 20 14 14 10
47 46 46 46 41 39 37 35 37 38 47 39 51 67 78 84 82 75 67 65 61 52 51 46 43 40 36 39 39 36 33 34 31 36 37 36 40 16 28 29 23 16 12 11 4
45 45 44 40 38 35 33 35 35 35 35 27 36 42 63 77 82 80 71 69 63 57 53 50 43 42 31 28 32 38 35 35 33 39 48 32 38 15 28 21 21 24 14 11 5
45 44 43 40 34 33 31 32 33 37 30 30 34 31 46 59 67 77 73 69 64 61 57 54 52 46 41 37 38 41 39 39 44 47 46 28 36 4 9 25 21 18 15 11 8
42 41 40 39 34 29 29 28 30 29 32 33 25 28 30 38 52 64 72 67 64 58 60 57 54 53 49 43 42 41 42 43 43 41 40 27 37 10 18 20 23 18 15 14 11
39 40 41 39 29 26 26 24 22 20 27 34 29 27 30 29 40 54 58 58 64 61 62 59 55 51 51 47 43 42 45 41 42 43 46 33 35 23 16 29 17 13 15 14 5
37 39 35 26 19 16 16 19 23 26 26 28 33 30 41 31 35 48 57 60 63 65 62 61 59 53 52 48 49 48 44 44 46 46 47 39 33 20 24 28 17 13 17 10 9
35 36 28 7 11 7 5 8 16 23 26 28 29 32 43 34 39 41 55 62 63 64 64 61 63 56 50 54 50 52 53 53 49 49 49 46 32 20 31 29 19 18 16 11 6
32 32 23 1 8 7 8 9 14 14 8 16 20 24 39 42 38 41 52 57 64 66 68 66 63 59 51 43 45 46 46 45 48 47 46 42 28 23 28 29 23 21 16 7 4
31 31 19 7 10 8 4 8 12 10 9 8 8 20 31 37 42 40 49 48 65 69 69 70 65 58 55 49 46 46 45 46 45 47 45 36 23 26 28 26 26 23 13 5 5
35 29 27 12 14 11 6 9 4 10 9 6 3 14 24 32 50 39 46 44 48 68 70 71 69 62 57 52 42 46 44 44 43 44 38 32 18 27 28 26 25 23 12 9 2
36 26 28 12 9 8 4 1 9 13 12 9 8 11 18 28 39 52 44 45 46 63 72 70 68 63 58 55 49 47 40 42 43 41 35 23 22 29 31 28 23 16 11 9 2
33 23 22 20 12 7 2 6 6 16 12 13 12 12 14 19 29 35 47 45 46 50 64 73 69 67 61 56 53 50 50 47 42 37 30 28 31 26 29 27 22 19 14 11 4
30 25 21 18 14 13 12 8 9 16 18 16 17 17 14 15 19 20 52 49 43 42 60 72 72 70 67 60 55 54 49 45 43 40 31 30 31 30 28 28 23 20 18 10 4

GFSSW_500_spd_033.txt.gz
Wind_Speed
26 27 28 28 30 32 36 42 44 48 51 59 67 68 67 62 59 56 47 43 47 54 49 46 45 43 39 37 40 43 48 42 34 31 28 34 41 39 41 43 43 39 39 42 35
29 30 30 31 31 33 34 37 41 46 47 46 52 58 61 62 61 66 55 58 60 55 54 55 50 49 49 44 46 46 50 44 35 34 33 38 43 43 45 46 43 40 41 44 40
29 30 32 33 33 34 36 39 40 41 42 46 49 50 52 52 50 59 63 61 63 60 61 57 58 59 59 56 51 54 54 39 38 38 44 42 43 49 48 50 43 42 44 45 46
33 35 37 38 39 40 41 41 41 44 44 45 46 46 48 49 52 51 52 61 61 60 60 64 63 57 55 55 47 58 56 47 38 38 46 46 49 46 51 48 42 44 48 48 49
31 33 34 37 39 42 44 45 47 48 49 50 48 50 52 51 48 52 54 55 58 61 62 63 61 55 51 50 51 56 58 52 45 45 45 46 48 48 47 43 44 48 51 52 53
35 37 39 40 41 43 44 45 48 51 52 53 54 52 52 49 50 50 50 51 60 58 60 63 62 56 56 56 53 51 55 56 56 51 42 42 45 53 40 45 49 55 58 58 56
41 43 44 45 46 47 49 51 52 53 54 54 56 57 56 51 54 51 55 50 53 58 60 63 65 64 63 60 57 56 57 59 59 49 45 44 49 48 45 50 57 61 56 57 52
47 49 51 54 55 57 58 58 58 58 60 60 61 60 58 58 56 53 52 51 51 57 57 63 65 64 65 62 62 62 62 63 56 48 45 49 55 43 41 53 59 58 55 50 45
54 56 58 60 62 65 67 69 69 70 69 68 67 66 64 64 59 59 55 54 54 57 60 60 67 67 67 67 65 68 67 60 52 49 51 50 51 43 41 50 57 49 46 41 31
54 57 60 64 67 70 72 74 75 77 78 78 76 73 70 70 68 64 60 59 56 56 60 60 63 66 66 67 65 56 53 55 53 48 53 50 46 44 42 47 49 47 31 23 16
60 63 67 71 74 76 77 80 82 83 82 82 82 81 79 79 75 72 67 65 61 59 57 63 63 62 57 55 61 63 65 59 56 53 56 46 47 45 38 40 39 29 18 20 20
67 71 75 79 82 84 86 87 86 86 84 82 86 87 82 82 81 81 77 70 67 62 59 60 61 50 51 58 59 61 62 61 60 58 56 49 50 36 35 31 30 21 20 21 17
75 78 80 78 76 73 71 66 65 65 80 69 69 77 78 84 86 85 83 78 68 66 63 62 42 47 49 49 52 52 56 55 56 59 50 47 44 40 31 28 25 20 18 20 18
75 68 61 54 50 51 50 51 52 53 57 51 52 55 65 76 79 86 85 82 77 67 62 60 51 51 50 50 47 47 44 44 48 55 44 38 49 35 26 26 25 20 13 15 18
57 52 48 46 44 45 45 45 45 46 45 40 41 41 46 59 72 77 84 81 76 69 66 59 59 57 50 45 39 37 38 38 44 45 43 42 50 14 22 24 23 24 16 16 17
49 46 44 43 42 42 42 40 38 37 37 31 34 27 28 40 53 63 73 78 73 67 62 61 59 53 50 43 39 34 34 35 42 44 50 45 39 19 14 17 24 24 19 19 19
46 43 41 40 40 41 39 36 32 31 27 30 31 30 25 30 32 46 61 68 73 70 66 64 63 57 55 47 45 42 36 37 36 41 49 36 34 10 4 18 23 21 23 17 22
40 37 37 38 39 34 27 27 25 24 22 28 28 23 22 23 17 35 48 56 66 66 65 66 64 59 54 49 41 37 36 42 41 47 46 27 35 16 14 13 13 25 24 20 20
33 36 33 34 26 21 18 17 17 17 21 24 22 26 23 28 22 26 39 51 61 66 67 64 63 57 53 46 41 36 43 36 37 39 33 31 25 17 16 13 24 15 18 22 18
34 35 32 30 15 17 13 9 11 16 20 22 20 22 26 29 32 22 30 43 59 67 67 64 65 60 54 49 48 44 31 36 41 44 39 29 27 18 14 18 24 12 20 22 16
39 38 27 20 8 9 11 13 14 13 11 14 20 19 24 31 39 23 35 32 50 64 63 63 65 62 61 55 52 50 48 49 44 41 38 32 28 15 15 21 20 16 19 19 15
41 31 29 14 10 8 7 10 14 14 13 14 8 14 22 30 36 29 42 22 44 58 65 65 65 62 58 56 49 49 45 39 39 38 36 35 26 17 18 23 24 19 21 17 18
39 34 32 9 4 17 8 10 10 14 16 11 10 6 17 24 33 38 25 42 39 53 61 68 67 62 60 58 55 52 47 49 49 46 43 40 34 22 16 21 26 23 23 19 17
40 34 31 23 14 6 13 6 14 16 13 13 13 8 8 14 23 28 30 47 34 45 55 67 68 64 60 55 53 53 54 50 49 47 45 42 32 21 24 23 23 26 26 21 13
43 39 31 24 18 11 12 13 8 14 17 14 14 13 10 12 19 19 35 42 42 43 52 61 67 65 60 58 55 52 49 51 48 43 44 35 27 24 23 25 26 26 26 19 13
37 37 35 28 21 15 12 9 9 12 12 15 12 13 13 11 14 19 30 38 32 44 49 60 63 66 60 55 57 54 48 47 46 43 38 28 25 31 33 32 28 28 24 20 12
31 30 32 28 27 20 14 11 12 14 17 14 12 15 16 11 9 15 20 34 38 40 47 59 62 66 59 58 54 56 47 44 43 43 33 28 31 36 34 34 30 26 27 19 14